Theta_e
322 322 326 328 330 329 329 330 330 330 329 330 330 330 330 330 331 331 331 331 331 331 330 330 329 330 331 330 328 329 330 331 331 334 334 333 332 333 333 332 333 333 333 331 330 332 329 329 329 328 329 328 327 327 327 327 327 327 327 327 326 326 328 330 330 330 327 325 327 327 327 330 329 328 328 328 328 328 329 328 328 328 328 328 328
322 323 325 327 328 330 330 330 330 328 329 330 329 330 330 331 331 330 330 331 331 331 330 328 329 330 330 330 330 330 330 330 329 333 333 331 332 332 333 333 332 331 333 330 331 330 329 329 329 328 328 328 328 327 327 329 327 327 326 325 328 327 326 329 329 329 324 323 321 321 323 326 327 328 328 328 327 327 328 327 326 327 328 328 329
320 322 325 326 327 329 329 329 329 330 329 329 329 330 330 330 330 331 330 330 330 330 329 329 330 331 331 330 331 330 332 333 333 333 333 329 329 331 332 332 332 331 332 332 330 329 329 329 328 328 328 329 327 326 327 326 326 326 326 326 325 327 328 330 329 328 323 325 324 321 318 317 321 324 327 327 328 328 329 328 328 328 329 328 328
317 320 323 324 326 327 328 328 328 328 328 328 328 328 329 329 329 330 330 329 329 329 331 332 332 331 331 331 331 331 331 335 334 333 332 330 329 330 331 331 332 331 332 331 331 330 329 329 329 328 327 329 327 326 326 326 326 325 325 326 327 324 326 326 328 326 327 323 317 318 318 318 313 317 320 324 329 328 328 328 329 328 328 328 327
317 319 322 324 324 325 326 328 328 326 326 327 326 326 328 328 329 329 330 330 329 330 330 331 332 331 331 332 332 330 333 333 331 328 329 329 330 330 329 331 331 331 331 331 332 330 329 328 328 328 328 328 327 327 327 326 326 326 326 326 326 326 324 326 327 326 326 327 321 317 315 314 315 318 320 321 326 326 327 328 328 328 328 328 327
316 319 321 324 324 325 326 328 326 325 325 325 325 325 326 328 329 329 329 329 329 330 330 331 330 329 328 328 327 328 328 329 328 326 325 325 327 331 331 331 331 331 331 331 331 331 329 328 328 328 328 328 328 327 327 327 326 325 326 326 326 328 327 326 324 327 326 325 320 319 321 316 315 319 318 312 324 326 326 327 327 327 328 327 327
320 321 322 323 324 325 326 326 326 325 325 324 323 322 323 325 327 327 328 328 329 329 331 330 329 329 329 329 329 328 328 329 332 331 329 328 330 330 330 331 331 331 331 331 330 331 329 328 328 328 329 328 329 327 327 327 327 327 327 326 326 327 328 325 324 324 325 324 323 320 322 319 323 319 314 316 313 320 325 324 325 327 327 326 326
321 321 322 325 325 323 323 324 323 324 324 324 322 322 321 321 323 325 328 328 329 330 330 330 328 327 326 326 327 327 328 329 331 331 331 330 329 330 330 330 330 331 330 331 330 330 329 328 328 328 328 328 329 328 327 327 327 328 328 327 326 327 327 326 324 324 322 322 322 322 321 322 322 318 321 318 316 314 317 323 325 325 326 325 325
319 319 319 319 319 319 320 320 322 323 324 323 323 323 324 325 325 326 327 328 328 329 329 329 329 328 327 328 329 329 329 329 331 331 329 329 328 329 330 330 330 330 330 330 330 329 331 328 328 328 328 328 330 329 328 328 327 327 326 325 325 325 326 327 325 323 323 321 319 318 320 320 319 320 320 319 317 315 315 317 318 323 324 324 323
320 320 319 319 320 320 321 322 322 322 323 323 324 325 325 325 325 326 326 327 327 326 327 327 329 330 330 329 329 328 329 329 330 329 329 327 326 326 328 328 328 329 329 329 329 329 329 329 328 328 328 329 331 329 329 328 327 327 327 326 326 325 325 326 325 325 324 322 322 319 318 317 318 319 319 318 320 320 315 316 318 318 317 320 323
319 319 320 320 321 321 322 321 322 321 322 323 324 324 325 325 325 324 326 328 328 326 325 325 326 327 328 329 329 328 328 329 328 328 328 327 326 326 326 327 328 328 328 328 328 328 328 329 329 329 330 331 331 329 328 328 327 327 327 327 326 325 325 325 325 324 324 322 321 321 321 320 319 317 318 318 317 317 317 317 319 320 319 318 321
318 318 318 319 319 319 319 319 319 319 320 321 322 323 324 325 325 325 326 327 327 326 325 325 324 324 326 325 326 328 328 328 328 326 325 326 326 326 325 326 325 326 326 326 326 327 328 328 329 329 330 330 329 329 328 329 329 328 327 327 326 326 326 325 324 324 323 323 322 322 322 322 320 320 320 320 319 318 319 317 317 318 319 318 320
315 316 317 317 317 317 317 317 318 318 319 320 322 322 323 323 324 324 325 326 326 326 325 323 325 325 326 326 326 327 327 328 328 326 326 326 326 325 324 324 325 324 324 325 325 326 327 327 328 328 328 329 329 328 328 329 328 328 327 326 326 325 325 325 324 324 324 323 322 321 322 321 321 320 321 320 319 320 320 317 318 320 316 316 320
311 312 313 314 315 316 317 317 318 318 319 320 321 321 322 322 323 323 324 326 326 325 324 324 324 324 325 326 326 327 326 326 326 326 326 326 326 325 324 324 324 324 324 325 326 326 327 328 329 329 329 329 329 328 328 328 328 328 327 326 326 326 326 325 325 324 324 324 324 321 321 322 320 321 322 321 320 320 318 318 317 316 318 317 318
310 309 310 311 312 314 314 315 317 318 319 320 320 321 322 321 322 323 323 325 324 323 323 324 325 325 326 326 326 325 325 325 325 325 325 325 325 325 324 324 324 325 325 326 326 326 327 327 328 328 328 328 328 327 328 328 328 328 327 327 327 326 326 325 325 324 323 323 322 323 322 321 321 321 322 322 322 321 320 319 318 314 315 317 316
308 308 308 309 310 311 312 313 314 315 316 317 318 320 320 319 320 321 322 324 324 324 323 323 324 324 324 324 325 325 326 325 325 324 325 325 325 325 324 324 324 325 324 325 325 327 326 326 327 328 328 327 327 327 327 327 327 327 326 325 325 326 325 324 324 324 324 323 323 322 322 321 321 321 322 322 322 322 322 322 321 319 315 311 314
306 306 306 307 308 309 310 311 312 312 313 313 315 316 317 317 319 319 321 322 323 323 322 322 323 324 324 326 325 324 325 324 324 324 324 325 324 324 324 324 324 323 323 324 324 325 326 326 326 326 326 326 326 327 327 327 327 327 326 325 324 325 325 324 323 324 324 324 323 322 323 322 321 322 322 322 322 322 322 322 322 320 319 315 312
305 305 306 306 306 307 308 309 310 311 311 312 313 314 315 315 316 317 319 320 321 322 322 322 323 323 324 325 325 324 325 324 324 324 325 324 323 323 322 322 322 323 324 325 325 325 325 329 326 325 325 325 326 326 327 327 326 326 326 325 326 325 325 323 323 324 323 323 323 322 322 322 322 322 322 322 322 322 322 321 321 319 320 317 315
303 304 304 304 305 306 307 307 309 309 311 311 312 313 312 312 314 315 315 319 322 322 322 322 322 322 323 324 324 325 325 324 324 324 323 323 323 322 322 323 323 323 324 323 323 324 324 325 324 324 324 325 325 325 326 326 326 325 324 324 324 325 324 323 322 323 322 323 322 322 321 321 322 322 322 322 322 321 321 321 319 319 318 318 317
301 302 302 303 304 305 306 306 306 307 308 309 310 311 310 311 312 312 314 316 317 319 322 322 322 322 322 324 325 325 325 324 324 321 320 322 323 323 323 322 323 324 323 323 324 324 324 323 323 323 323 323 323 324 325 325 325 325 324 324 324 324 324 323 321 322 323 323 322 322 321 321 321 322 321 321 321 321 321 320 318 318 317 317 317
300 300 301 302 303 304 305 305 306 307 307 307 308 308 309 309 310 310 311 312 312 314 317 320 323 322 324 325 325 323 324 324 323 323 322 322 323 323 323 324 323 323 323 323 323 324 324 323 323 323 323 322 323 322 323 324 324 323 323 324 323 324 324 323 323 321 323 323 323 323 321 320 322 322 321 321 320 320 320 320 318 317 315 316 317
299 300 300 300 301 303 303 304 305 305 305 305 306 306 306 306 307 308 309 310 310 311 313 315 319 323 323 324 325 324 323 322 322 322 322 322 322 323 323 323 323 323 324 323 323 324 324 323 323 323 322 322 322 323 322 323 323 322 322 323 324 324 324 323 323 323 322 323 323 323 321 320 321 322 321 321 321 319 318 318 317 317 315 314 317
298 298 299 299 299 300 301 302 302 302 303 304 304 304 304 305 306 307 307 307 309 310 312 313 315 319 323 323 324 324 324 322 321 321 321 322 322 323 323 323 323 323 323 323 323 323 323 323 323 322 322 321 322 322 321 322 322 322 321 321 323 324 324 322 322 323 323 322 321 322 320 320 320 320 320 321 320 319 320 318 318 317 316 314 313
298 298 298 298 299 299 299 299 300 300 301 302 303 303 303 304 304 305 305 306 308 309 310 311 313 315 320 322 321 322 323 322 320 320 321 321 322 322 323 323 323 323 323 323 323 323 323 322 322 321 321 321 320 320 320 321 321 321 321 321 321 323 323 323 323 323 323 322 322 320 319 320 319 319 318 319 320 320 319 318 318 317 318 315 313
296 297 297 297 298 298 298 298 299 299 300 301 301 302 302 302 303 303 304 305 307 308 308 310 312 315 318 322 321 320 320 321 320 321 321 322 322 322 322 323 323 323 323 322 322 322 322 322 322 321 320 320 319 319 319 319 319 320 321 321 321 322 322 323 323 323 325 323 322 322 320 320 319 318 317 318 319 319 319 319 318 317 317 317 314
296 296 296 296 296 297 297 297 298 298 299 299 300 300 301 301 302 303 303 304 306 307 308 309 312 314 318 320 322 321 321 321 320 321 322 322 322 322 323 323 323 323 322 322 322 321 322 322 322 321 321 320 320 319 319 319 318 318 319 320 320 321 321 321 321 322 323 322 321 320 320 320 319 319 318 318 318 319 318 318 318 317 317 317 316
295 295 295 295 295 295 296 296 297 297 297 298 299 299 300 300 300 302 303 304 305 306 307 308 310 311 314 319 321 321 322 322 320 320 321 322 322 323 323 323 323 323 322 321 321 321 321 321 321 321 320 320 319 318 318 317 317 317 318 318 318 318 318 319 319 320 320 319 318 318 318 318 319 319 318 317 317 317 317 317 318 318 316 316 315
294 294 294 293 294 294 295 295 296 296 297 298 299 299 299 299 299 300 301 303 304 305 306 306 308 309 310 312 318 322 321 321 321 321 321 322 322 322 323 323 323 323 322 321 320 320 319 319 319 319 319 319 318 317 316 316 316 316 317 317 317 317 317 317 318 319 318 318 318 319 319 319 320 318 318 316 315 316 316 316 313 314 313 313 313
293 293 293 293 293 294 294 295 295 296 296 297 298 298 298 298 299 300 301 302 304 304 304 305 306 307 308 311 314 320 322 321 321 321 321 321 322 322 322 322 321 321 320 319 318 318 316 315 315 316 315 315 316 316 314 313 313 313 315 316 316 316 317 316 316 316 317 317 317 319 320 319 320 318 312 312 312 312 314 314 310 312 311 311 308
292 292 293 293 293 294 294 294 295 295 295 296 297 297 298 298 299 300 300 302 303 304 304 304 304 305 307 309 311 316 321 321 321 321 321 322 322 321 321 320 320 320 319 319 317 314 315 315 313 312 311 312 312 312 311 308 309 313 314 315 316 316 316 316 315 314 314 314 314 315 320 318 313 311 307 302 303 306 310 313 312 310 310 309 307
292 292 292 293 293 294 294 294 294 295 295 296 296 297 298 298 299 299 300 301 303 303 303 303 303 304 306 307 309 311 315 320 320 321 321 321 321 321 320 319 319 319 318 317 315 313 312 312 312 311 309 309 308 307 299 298 300 305 313 315 315 315 316 315 314 314 313 311 311 311 312 314 311 309 304 299 298 298 299 300 303 307 310 310 308
291 292 292 292 293 293 293 294 294 295 295 295 296 297 298 298 298 299 300 301 302 302 303 303 303 304 305 305 307 309 311 316 320 320 321 321 321 319 318 319 318 316 316 314 313 312 310 309 309 309 308 307 305 301 296 294 295 300 307 315 315 315 314 313 312 312 312 311 311 310 310 309 308 307 306 304 301 297 296 296 296 296 296 296 301
291 291 292 292 292 293 293 294 294 295 295 296 296 296 297 298 298 299 300 300 300 301 302 303 303 303 303 305 306 307 309 312 318 320 320 320 320 318 317 316 316 315 313 312 310 308 307 306 307 306 305 305 303 297 298 298 297 299 302 309 315 314 313 311 311 312 312 311 311 311 311 313 314 314 312 308 306 304 300 299 299 300 299 297 295
291 292 291 292 292 293 293 294 294 295 296 296 297 297 297 298 298 298 298 298 299 299 301 302 302 303 303 303 305 305 306 308 312 317 318 317 317 316 313 312 312 311 310 308 307 305 304 304 304 304 302 301 300 296 297 296 296 298 300 306 313 312 312 312 312 312 311 311 311 311 311 310 311 313 313 313 313 313 312 311 310 308 307 304 299
291 291 291 292 292 292 292 292 293 295 296 296 295 296 297 297 297 297 297 297 297 298 299 300 301 302 302 303 303 304 305 306 307 309 313 313 311 308 308 306 306 306 305 304 304 302 301 301 301 301 301 300 298 295 295 295 297 299 301 305 314 313 312 311 310 310 310 310 311 311 311 310 310 309 308 311 313 312 311 309 307 305 305 304 304
291 291 291 292 292 292 292 292 294 294 295 295 295 296 296 296 297 296 296 295 296 296 297 299 300 301 301 302 302 303 303 304 304 303 303 303 303 303 302 302 301 300 300 300 300 300 300 300 301 302 302 300 299 294 295 296 298 300 303 312 313 312 310 309 308 307 306 307 308 308 307 307 306 305 299 299 305 312 310 307 304 304 303 303 302
292 292 292 293 294 293 294 294 294 294 294 294 294 295 295 296 296 296 295 294 295 295 296 298 299 300 301 301 302 302 302 302 302 302 301 300 300 300 300 300 298 297 296 296 296 297 298 299 299 300 300 299 299 296 295 296 298 300 305 311 310 308 307 305 304 303 304 304 304 303 303 301 300 299 296 296 299 304 309 306 304 302 302 302 303
293 293 293 294 294 295 295 294 293 294 294 294 294 294 294 294 294 294 294 294 294 294 295 297 298 299 300 300 301 302 301 301 301 300 300 300 299 298 298 298 296 295 295 295 296 297 297 298 297 298 298 298 298 296 295 296 298 300 305 309 307 303 301 299 298 299 300 301 303 303 301 299 299 297 293 295 297 304 306 304 303 302 301 301 302
293 293 293 294 294 295 295 294 294 294 294 294 293 294 294 294 294 293 293 293 293 293 294 295 296 298 298 299 300 301 301 301 299 299 299 298 297 297 297 297 297 297 296 297 297 295 296 296 297 297 299 297 296 296 294 295 297 300 305 306 304 301 299 298 298 298 299 298 298 298 298 297 297 293 291 292 295 302 305 304 304 302 300 300 301
294 294 294 295 295 295 294 294 294 294 295 295 294 294 294 294 294 293 293 293 293 293 294 295 296 296 297 298 299 300 300 301 300 300 299 299 299 298 297 297 297 297 296 296 296 296 295 295 296 296 296 296 295 295 294 293 295 297 300 306 304 302 300 299 300 299 299 299 299 298 296 290 290 290 290 290 291 294 301 302 302 301 300 299 301
293 294 295 294 294 294 294 294 295 295 296 296 295 294 293 294 294 293 293 293 294 294 294 294 294 295 295 296 297 298 299 300 301 301 300 299 299 298 298 297 297 297 296 296 295 295 295 294 295 295 295 295 296 294 293 291 293 294 296 300 304 303 302 301 300 299 299 298 297 297 297 292 290 290 290 290 291 292 295 299 299 299 299 299 298
295 295 295 294 294 294 294 294 295 295 296 296 296 294 294 293 293 293 294 295 295 295 295 294 294 294 294 294 295 296 298 300 301 301 299 299 299 299 298 298 297 297 296 296 296 295 295 295 295 295 295 294 296 295 293 291 291 292 292 295 301 301 301 300 298 297 297 296 296 296 296 292 290 290 290 291 291 291 292 296 293 290 291 293 299
293 293 294 294 293 293 293 293 294 295 295 295 295 294 294 294 292 293 295 295 295 295 294 293 294 293 293 293 294 294 295 297 298 300 300 299 299 299 299 298 297 297 296 295 295 295 295 294 294 294 294 294 294 294 292 292 290 290 290 291 292 295 294 300 298 296 295 295 295 295 295 292 290 290 290 290 291 291 292 290 288 289 290 291 294
293 294 294 294 293 294 293 294 294 294 294 295 295 294 294 294 293 294 295 295 295 295 294 293 293 293 293 293 293 293 294 294 296 297 299 299 299 299 298 298 297 296 295 295 294 295 294 293 293 293 294 294 294 294 293 291 291 290 290 290 290 290 292 295 295 294 294 295 294 294 293 290 290 290 289 289 289 290 289 288 289 290 291 293 296
292 292 293 293 292 292 293 294 294 294 294 294 294 294 293 293 294 296 295 295 295 295 294 293 293 293 293 293 293 292 292 293 294 295 295 296 298 298 297 297 297 296 295 294 294 294 293 293 293 292 293 293 294 294 293 293 291 291 290 290 290 290 290 291 294 294 293 293 291 290 290 291 291 291 291 291 291 290 289 290 290 291 295 296 296
293 293 293 293 293 293 293 293 293 294 293 294 293 293 293 293 295 296 295 295 295 295 294 293 293 292 293 293 292 292 291 292 292 293 293 294 294 296 296 297 296 295 295 294 293 293 293 293 292 292 292 292 293 293 293 293 293 293 292 290 290 291 291 291 292 291 290 290 290 291 291 291 292 293 295 295 294 293 291 291 291 293 295 295 295
290 291 291 291 291 292 292 292 292 293 293 293 293 294 294 294 294 295 296 296 295 295 295 294 294 293 292 292 292 291 291 291 291 291 292 292 292 292 292 292 294 294 294 293 293 293 292 292 292 292 292 292 292 292 291 292 292 292 292 293 294 293 293 292 294 294 293 293 292 293 291 290 291 290 291 291 292 292 293 293 293 293 293 293 293
286 287 288 289 290 290 291 291 292 292 293 293 294 294 294 295 295 295 295 295 295 294 294 294 294 294 293 292 292 289 290 290 290 289 289 290 290 291 290 289 289 290 293 293 292 292 292 292 292 292 292 292 292 291 290 289 289 290 292 292 292 292 292 292 293 293 294 294 293 292 292 294 294 293 293 293 292 292 292 291 292 291 291 292 292
287 288 287 287 288 289 289 290 291 292 292 293 293 294 294 294 295 295 295 294 294 294 294 294 294 294 293 293 292 292 292 291 290 290 289 289 288 289 290 290 290 290 291 292 292 292 292 292 292 291 292 291 291 290 289 288 288 288 289 291 291 291 292 291 292 291 293 292 292 292 291 291 291 289 289 290 291 291 289 290 290 290 290 289 289
287 288 286 287 288 288 289 290 291 292 292 292 292 293 294 294 295 295 295 294 294 294 293 293 294 294 294 293 292 292 292 291 291 290 290 290 288 289 289 289 289 289 288 289 289 290 291 292 291 289 290 291 289 289 287 288 288 288 288 288 289 289 289 290 290 289 291 289 288 288 288 288 288 289 288 288 288 288 288 288 288 287 287 288 287
289 288 288 288 287 288 289 289 290 291 292 292 292 292 292 293 294 295 294 294 294 293 293 293 293 292 292 293 293 292 292 291 291 290 291 289 290 290 289 288 289 289 288 288 288 288 288 289 291 290 289 288 288 287 287 288 288 288 288 289 289 289 289 289 289 289 288 288 288 287 287 287 287 288 287 287 287 287 287 287 287 286 286 286 286
Wind_Speed
1 3 4 5 5 4 4 4 4 4 2 3 4 3 2 2 1 3 6 6 6 7 8 9 8 7 8 9 9 7 7 5 6 4 6 7 8 6 6 5 5 3 4 5 5 6 5 3 4 5 5 5 6 6 6 6 6 7 7 6 10 10 7 7 6 8 9 5 5 5 5 5 5 5 5 5 4 3 3 2 2 3 2 3 2
3 4 5 6 5 4 5 4 4 5 2 3 5 4 4 4 4 3 6 6 7 8 4 1 2 3 5 7 6 7 7 6 6 6 6 7 6 7 6 6 5 4 3 3 2 4 2 2 3 5 6 5 4 5 5 6 7 7 7 6 5 9 7 9 8 9 5 5 6 5 3 5 6 5 5 4 4 4 3 2 2 1 3 3 3
3 4 5 5 6 5 4 3 3 2 2 2 3 5 6 6 5 4 5 7 6 4 1 3 0 2 3 3 4 4 3 5 6 8 9 7 5 5 5 5 5 5 5 5 5 6 4 3 4 4 6 6 6 6 6 7 7 8 8 8 7 3 5 6 9 2 6 5 5 4 4 2 2 3 4 5 4 4 3 3 3 2 3 3 2
4 5 6 4 4 5 3 2 3 3 2 3 3 4 3 4 3 3 4 5 5 3 0 1 1 1 4 3 2 3 2 5 7 8 5 5 5 5 3 2 5 6 6 6 6 6 6 6 4 5 5 6 7 7 7 7 7 7 7 8 9 10 6 7 5 3 6 9 6 2 2 1 3 2 2 2 3 4 3 3 4 3 4 3 2
5 4 5 4 5 5 4 0 2 2 2 3 2 0 1 1 2 4 5 5 4 2 3 4 3 5 4 3 3 1 4 6 8 7 6 4 4 7 8 8 8 5 5 5 6 7 7 6 7 7 6 6 6 7 8 8 8 8 9 9 9 10 9 5 3 4 6 1 5 5 2 3 2 3 4 2 3 3 3 2 3 4 4 4 3
1 5 7 6 6 2 1 0 0 1 1 2 2 1 2 3 4 3 1 1 0 2 4 5 5 5 7 7 6 6 5 7 9 8 8 9 9 5 7 8 9 7 6 5 6 6 8 8 8 7 6 6 6 7 7 6 7 8 8 8 8 8 9 8 6 4 5 2 1 1 4 5 6 6 5 3 3 2 5 4 3 3 4 4 3
3 3 5 4 1 1 0 2 3 3 3 2 2 2 1 1 1 2 1 1 2 4 5 6 5 6 8 8 7 6 7 5 6 7 8 6 5 6 7 7 5 7 7 6 7 7 7 8 8 7 7 6 5 5 6 8 8 7 6 6 7 7 7 9 9 8 4 3 1 0 1 1 7 9 4 5 4 1 2 4 2 3 3 3 3
5 4 3 3 6 7 5 5 5 4 2 2 2 3 3 2 1 0 1 2 3 4 6 6 7 6 5 4 2 5 5 5 7 7 6 7 7 7 6 7 6 5 6 7 7 7 7 7 7 6 6 6 6 6 6 6 6 6 7 7 6 7 9 10 9 8 9 6 3 2 1 3 5 4 6 5 5 6 4 3 3 4 3 2 2
10 10 10 9 9 7 5 5 5 5 3 3 4 3 3 2 2 1 1 2 2 3 6 6 5 6 5 5 4 3 3 5 5 5 6 6 7 5 6 6 8 8 8 7 7 7 7 7 6 6 6 6 6 5 5 7 8 9 8 7 7 7 7 7 8 9 7 6 5 2 4 4 3 3 6 4 4 5 3 5 3 2 4 2 2
10 11 10 10 8 7 5 5 6 5 4 4 4 3 4 3 2 1 1 2 2 1 4 5 5 4 5 5 5 4 5 5 5 5 5 6 6 6 5 7 7 7 7 7 6 6 6 6 6 7 7 6 6 6 6 6 7 7 9 9 8 8 6 6 8 8 7 5 5 5 4 4 4 3 3 4 3 1 5 7 5 4 4 2 2
9 9 9 9 7 6 4 5 5 8 7 8 6 5 4 4 3 2 2 4 1 1 1 3 4 3 3 3 2 3 5 6 5 4 3 3 3 5 6 7 7 7 6 7 7 6 6 6 6 7 6 6 6 6 7 7 7 8 7 7 8 8 7 6 5 5 6 5 6 6 7 8 7 5 7 5 4 4 5 5 6 4 4 4 1
9 9 8 8 8 8 7 8 7 7 7 7 7 7 7 7 5 1 3 3 1 1 0 0 2 2 2 3 2 1 3 3 4 5 5 3 3 5 4 4 5 5 6 6 6 7 6 6 6 6 6 6 6 6 6 7 7 7 6 7 7 7 6 6 6 7 8 6 5 5 6 6 5 5 6 7 7 6 6 8 7 4 4 2 1
10 9 9 9 9 8 8 7 7 7 6 5 6 6 6 6 7 7 5 4 3 2 2 1 1 2 4 3 3 4 4 5 5 6 6 6 7 6 5 6 5 6 6 7 7 8 7 6 6 6 6 6 6 6 6 7 7 7 7 7 7 8 7 7 7 8 9 8 7 6 5 5 6 3 5 6 4 5 6 8 5 4 3 2 2
8 8 10 10 11 10 10 8 6 6 7 7 7 6 5 5 5 5 6 6 5 3 2 2 3 2 3 4 5 6 6 6 6 7 7 7 7 7 6 6 6 7 7 8 7 7 6 6 6 6 6 6 6 7 7 7 7 7 7 8 8 7 7 8 8 8 8 8 6 6 5 6 4 5 6 6 7 7 6 8 8 2 3 3 2
8 9 10 10 10 10 10 11 10 9 9 8 7 7 6 6 6 6 6 5 5 6 3 4 5 4 4 4 5 6 7 6 6 6 7 8 7 7 7 7 6 7 7 6 6 7 7 6 6 7 6 6 6 6 5 6 6 6 6 8 7 7 8 8 7 8 7 8 7 7 6 5 5 5 7 7 6 7 8 8 9 8 4 4 2
11 11 11 12 11 11 11 11 10 9 11 10 10 8 8 8 7 7 7 6 5 6 6 7 6 5 5 4 4 5 6 7 6 6 7 6 6 7 6 6 6 5 5 4 5 6 7 7 6 6 6 6 6 6 6 6 6 6 6 6 7 5 7 8 7 8 8 9 9 6 6 6 5 6 6 6 6 6 7 8 8 8 9 6 2
10 10 10 10 11 11 10 10 10 11 10 11 11 10 10 10 10 11 9 8 6 5 7 6 5 5 6 6 7 8 9 9 9 8 7 6 6 5 5 5 4 4 5 4 6 6 6 7 7 6 6 6 6 6 7 6 6 6 6 7 6 6 7 8 6 7 7 7 6 8 7 6 6 5 5 5 5 5 5 7 7 9 7 7 7
9 10 10 9 9 11 10 10 10 10 10 9 9 9 8 9 10 13 12 10 7 3 1 5 6 6 5 6 6 9 10 5 4 5 4 3 3 4 3 4 6 5 5 5 6 6 6 7 7 6 6 6 7 6 7 7 7 6 7 7 7 7 6 5 5 6 6 6 6 5 5 5 5 6 6 6 6 6 6 7 6 4 4 7 7
11 10 10 10 11 11 11 11 10 10 9 9 9 8 8 9 9 9 11 12 8 6 6 8 7 4 2 3 4 5 6 5 3 2 4 1 5 5 5 5 5 6 6 5 5 6 6 6 6 6 6 6 6 6 6 6 6 6 6 6 5 6 6 6 5 6 5 6 6 7 5 5 6 6 5 5 5 5 5 6 4 4 4 4 7
8 9 9 9 9 10 10 10 11 10 10 10 10 9 12 11 11 12 12 12 13 12 10 8 5 3 2 2 3 5 4 1 2 2 7 10 8 6 6 6 7 6 6 6 6 6 6 6 5 5 6 5 6 5 6 6 6 6 6 6 6 6 6 6 5 4 5 6 7 6 6 6 6 5 5 6 6 5 6 7 5 5 4 5 6
9 9 9 9 10 10 10 9 9 8 9 10 10 10 10 10 11 12 12 13 13 12 12 10 6 3 2 3 4 5 5 6 10 9 7 5 4 5 6 7 5 6 5 6 6 6 6 6 7 6 7 6 6 6 5 6 6 6 5 6 6 6 7 5 6 5 5 6 6 6 6 5 7 7 6 6 5 6 6 5 5 5 5 5 6
8 8 8 8 8 8 8 9 8 9 10 12 11 10 11 11 11 11 12 11 12 12 11 11 12 8 5 7 5 3 3 3 2 2 4 3 3 5 6 5 7 7 6 7 7 6 6 7 7 7 7 7 7 7 6 6 6 6 6 5 6 7 6 6 6 6 5 5 5 6 5 6 6 7 7 7 7 6 6 6 5 6 6 6 5
9 9 8 8 8 8 8 10 11 11 10 11 10 11 11 11 12 10 11 13 11 10 9 9 9 10 8 5 4 3 2 1 1 2 4 6 6 6 5 6 6 6 6 7 7 7 7 7 7 7 7 7 7 7 6 7 7 7 7 6 6 7 7 7 6 6 6 5 5 5 6 6 5 6 7 6 7 7 7 7 7 6 6 6 6
9 9 8 9 9 9 9 11 11 11 12 12 11 10 11 11 11 10 11 11 12 11 11 10 9 10 11 6 4 6 5 5 3 6 9 7 6 6 6 6 6 5 7 6 7 8 7 8 8 7 8 7 7 6 7 6 8 8 7 7 7 7 7 7 7 7 6 6 6 6 5 6 6 7 7 7 7 7 7 6 8 6 6 7 6
10 10 10 10 10 11 10 10 10 11 11 11 11 10 11 11 11 12 11 10 8 8 9 9 8 9 10 8 7 5 0 4 7 4 5 5 6 6 5 4 1 3 6 7 7 7 7 8 8 8 8 8 8 8 7 7 6 6 7 7 7 7 7 7 7 7 6 7 7 7 7 7 7 7 7 7 7 9 8 6 7 7 7 6 5
9 9 10 10 9 9 10 11 10 10 10 10 10 10 10 10 11 10 11 12 11 8 8 7 6 8 8 8 6 4 2 4 5 5 5 6 6 6 5 6 9 9 5 5 7 7 8 8 7 7 8 8 8 8 8 8 8 7 6 7 7 7 7 6 5 5 5 5 6 7 7 8 8 8 8 7 8 10 9 8 8 7 6 6 6
9 8 9 9 11 12 11 11 10 11 10 9 10 11 11 10 11 11 11 11 11 10 10 8 9 9 9 8 6 5 3 5 4 4 5 6 6 6 7 8 6 7 9 9 6 7 7 8 8 7 7 7 7 7 7 7 7 7 7 7 7 6 5 5 5 6 6 6 6 6 6 6 7 6 7 8 8 8 8 10 9 9 7 7 6
8 10 11 11 10 10 10 10 11 11 11 10 9 9 10 10 11 11 11 10 10 10 10 10 10 10 9 10 10 6 4 4 4 6 7 6 6 7 8 7 7 7 7 7 7 8 6 5 6 7 6 6 6 6 6 6 7 7 7 7 7 6 6 5 5 5 6 6 7 8 8 8 8 7 7 7 6 8 7 8 6 6 6 7 7
9 9 9 10 10 9 9 10 9 10 11 11 10 10 9 8 8 9 10 11 11 10 10 10 9 9 9 10 10 9 5 4 5 7 7 7 7 8 9 8 6 5 4 5 3 3 7 6 4 4 5 5 6 6 5 6 6 6 6 7 7 7 7 7 6 5 4 5 5 5 6 5 6 5 6 5 4 2 6 7 6 7 7 6 5
9 9 9 8 9 9 9 9 9 9 10 10 10 10 10 10 10 9 10 11 10 10 10 10 11 10 10 10 9 9 8 5 5 6 7 7 8 9 9 8 8 7 7 6 4 3 5 8 7 5 3 4 4 4 6 10 8 7 7 6 6 7 7 8 7 6 4 3 3 3 4 7 8 8 6 7 6 5 4 4 7 8 8 7 7
8 8 8 8 8 8 8 8 9 9 10 9 9 9 9 10 10 10 10 10 9 9 10 10 11 11 11 11 10 9 9 7 6 6 7 8 9 8 7 8 7 7 7 5 4 6 5 5 7 7 6 4 4 3 4 7 8 9 7 7 8 7 7 7 8 8 7 5 4 4 4 6 7 7 9 10 9 10 10 11 9 7 6 9 10
7 7 8 8 8 8 8 9 9 9 9 9 9 9 9 10 10 11 10 9 10 10 9 11 11 11 11 12 11 11 9 9 6 6 8 9 8 7 8 8 7 7 6 6 5 6 5 5 5 5 6 5 4 2 4 5 6 7 7 8 8 8 7 7 7 7 6 6 6 5 4 4 5 7 8 9 10 12 14 14 14 12 11 9 6
7 7 8 8 8 9 9 9 9 9 9 9 8 9 10 9 10 9 9 10 10 10 10 10 11 11 12 11 11 11 10 10 8 7 6 8 8 7 7 7 7 6 6 7 5 6 5 4 6 7 5 4 4 2 2 4 6 8 11 10 7 8 8 7 6 6 6 6 6 6 6 5 5 11 8 8 10 11 12 16 16 17 16 14 14
7 7 7 7 8 8 8 8 8 9 9 8 8 8 8 8 8 8 9 9 10 11 11 11 11 12 12 11 12 11 10 9 10 6 5 5 6 6 4 3 4 5 6 6 5 6 5 4 4 5 5 4 3 4 2 6 8 11 12 10 8 8 8 7 7 6 6 6 5 7 7 7 5 5 5 7 8 8 8 9 10 10 9 11 13
6 7 7 7 8 8 9 9 9 9 9 9 9 9 8 8 8 9 9 9 9 10 11 12 13 12 12 11 12 11 9 10 9 9 5 1 2 5 5 5 5 5 5 5 6 7 5 5 6 5 5 4 4 4 7 9 11 13 14 11 9 8 8 9 8 7 7 6 5 6 8 8 6 5 4 5 8 9 10 9 10 9 9 8 8
5 6 7 7 8 8 7 7 7 8 9 9 9 9 8 7 7 9 9 9 9 10 11 12 13 13 12 11 11 11 11 10 11 10 11 10 9 7 6 5 7 7 7 7 6 7 6 7 6 6 6 6 6 7 8 9 13 15 15 9 9 9 9 9 8 7 7 7 7 8 8 8 6 5 6 8 7 7 9 9 9 8 8 7 7
5 5 6 6 6 6 7 6 7 7 9 9 9 9 7 8 10 10 9 10 10 12 12 12 12 12 13 12 11 11 11 11 10 11 11 11 10 8 7 5 10 9 10 10 7 6 6 7 9 7 7 6 6 8 9 8 12 17 13 9 10 8 9 9 8 6 7 7 6 5 7 6 5 5 5 9 8 7 8 9 8 7 6 7 6
5 6 6 7 7 7 7 7 8 9 9 8 8 8 8 9 10 10 10 10 11 12 11 12 12 12 11 11 12 11 11 10 10 11 10 9 9 8 8 7 9 10 11 9 8 8 9 8 10 10 7 7 7 10 10 9 8 10 13 11 9 9 9 8 7 7 7 7 9 13 8 7 7 5 8 11 9 9 9 8 9 10 9 8 5
5 6 7 7 7 6 7 8 8 10 10 9 9 8 9 10 10 10 10 11 12 10 10 11 10 10 11 11 11 12 12 10 10 10 10 10 9 8 6 7 8 10 10 9 11 10 10 9 10 10 13 10 8 10 13 11 12 9 9 9 9 8 10 8 9 9 7 6 6 8 11 9 7 8 11 10 9 9 8 8 8 9 8 7 2
7 7 5 5 6 8 9 9 10 10 9 9 8 9 10 10 10 10 12 12 11 9 9 9 10 10 10 11 11 12 12 11 10 9 10 10 8 8 7 10 8 9 10 9 10 11 12 9 10 12 10 10 10 9 11 14 12 12 8 7 8 12 9 9 8 8 9 7 6 6 8 10 9 11 12 12 10 9 7 5 5 7 8 6 3
7 8 7 7 7 7 8 9 9 9 9 9 8 9 10 10 10 11 12 10 9 9 9 9 9 11 12 12 11 11 12 12 10 8 7 9 9 8 6 9 8 8 10 9 11 11 12 10 10 11 11 12 10 9 11 17 15 13 11 8 7 8 8 8 8 7 7 7 6 6 3 8 9 10 11 12 12 12 9 7 6 5 3 6 5
6 8 8 7 8 9 11 11 10 10 9 9 8 10 10 10 12 13 11 8 9 10 10 10 11 11 11 11 12 11 11 10 10 9 8 9 7 8 7 7 8 9 11 10 9 11 11 10 10 11 10 10 12 16 10 15 16 16 15 12 8 7 6 9 8 6 6 6 6 5 4 6 10 10 12 13 13 12 11 7 7 8 9 10 7
8 9 8 7 7 8 9 9 9 9 9 9 10 11 10 10 12 11 9 8 9 9 10 10 11 12 11 11 11 12 11 9 9 9 9 9 7 8 7 9 10 9 10 10 10 10 10 9 9 9 8 9 9 10 16 12 15 16 16 15 13 8 8 7 8 7 6 6 4 5 4 8 11 11 11 11 11 12 10 8 10 11 10 10 8
6 6 7 7 7 7 7 8 9 9 8 8 9 10 11 12 12 9 9 10 10 9 10 11 11 11 11 11 10 10 10 10 11 9 9 9 9 8 8 8 7 8 9 10 9 9 9 10 9 8 8 8 7 7 11 14 12 15 14 15 14 14 12 9 8 7 4 4 4 5 6 11 11 11 13 13 12 11 10 11 11 11 10 8 7
5 5 6 5 6 7 7 8 8 9 8 8 7 9 11 12 9 8 9 9 9 10 11 11 11 11 11 9 10 10 9 10 10 10 10 10 10 9 9 8 8 8 9 9 7 8 9 8 8 8 7 7 7 7 8 11 15 15 16 15 14 14 12 12 9 6 6 5 7 11 13 13 13 13 15 15 13 13 13 12 12 11 9 6 7
5 6 7 6 6 7 8 9 9 9 8 7 7 7 9 7 7 8 8 7 8 10 11 10 10 10 10 10 10 10 10 11 11 10 9 9 9 9 8 7 7 7 7 8 7 7 7 7 7 6 6 6 7 7 7 8 8 9 10 13 13 14 15 15 13 10 12 12 12 12 12 12 10 9 9 9 8 9 13 14 13 10 7 7 7
4 4 4 5 5 6 7 7 8 9 8 7 6 7 6 5 6 6 7 7 9 9 10 10 10 9 9 10 11 9 9 10 11 9 9 9 8 9 9 8 7 6 6 6 6 6 6 6 6 5 5 5 6 6 6 6 5 4 3 2 5 8 10 11 9 8 9 8 10 8 9 12 12 15 14 12 10 9 10 8 7 6 6 5 5
2 3 4 4 5 4 6 6 7 7 7 7 7 7 6 6 5 5 5 6 8 8 8 8 9 8 8 8 9 10 10 8 9 10 10 9 8 7 8 8 7 6 5 5 6 7 6 6 5 5 4 5 5 5 6 6 6 5 3 4 5 6 6 6 8 7 7 7 7 7 8 7 8 9 9 8 6 6 7 7 6 5 5 5 6
4 4 3 3 4 5 4 5 5 6 6 7 8 7 6 5 5 4 5 7 7 8 8 8 8 8 8 7 7 8 8 8 8 8 9 9 8 7 7 7 7 5 5 5 5 6 5 5 5 5 5 5 6 6 7 5 4 4 5 5 5 5 6 6 6 7 7 5 5 6 7 7 8 8 7 7 6 7 7 6 6 5 5 5 5
2 1 3 4 3 3 4 5 5 6 5 6 6 7 6 5 5 5 6 7 7 7 7 7 7 7 7 7 7 7 7 7 8 7 7 8 11 14 10 7 7 10 13 11 7 5 3 3 5 5 4 4 3 3 4 7 7 8 9 9 7 8 7 6 7 8 5 6 5 6 5 6 5 6 6 6 5 4 4 4 6 5 5 6 5
4 5 5 5 5 4 5 5 6 5 5 5 6 5 6 7 5 5 6 6 6 6 6 6 6 6 6 5 5 6 6 6 6 6 6 6 6 9 14 14 12 12 13 13 12 10 9 8 4 4 5 9 7 6 7 7 8 9 9 9 9 8 8 7 4 5 6 5 5 7 5 6 5 6 6 4 4 5 5 5 4 4 4 6 4
Wind_Direction
58 96 121 139 156 151 153 159 161 162 170 170 182 191 172 185 209 149 126 132 144 161 187 193 191 181 177 181 187 186 187 155 139 142 153 182 188 184 195 210 219 187 167 159 138 129 191 173 147 150 160 161 162 167 161 143 136 134 125 122 132 132 128 127 117 123 120 100 110 104 111 115 111 113 113 110 111 104 130 139 138 126 123 115 100
130 141 149 151 166 175 164 163 159 177 174 170 186 185 184 199 215 153 138 150 171 184 179 301 324 262 233 206 182 179 169 161 154 160 165 196 183 183 189 205 199 182 160 97 96 118 147 142 186 170 170 168 155 142 133 131 134 134 131 115 134 141 140 145 145 140 130 139 136 119 90 73 98 111 119 102 115 132 134 130 69 175 122 117 113
186 196 161 162 181 180 171 160 129 129 154 202 181 172 182 195 207 175 155 165 184 176 158 218 150 328 285 304 230 165 134 133 143 171 182 162 166 185 181 196 194 184 174 160 140 125 185 191 216 204 173 157 143 148 146 145 152 151 151 140 139 134 132 151 166 189 133 125 101 107 117 133 119 84 84 102 128 128 137 141 159 150 118 122 126
190 189 168 164 193 199 200 181 124 121 160 200 204 207 195 205 206 190 175 176 174 138 203 237 142 110 354 18 360 359 110 126 143 169 156 134 169 165 168 200 214 191 177 158 158 149 170 203 186 207 189 173 162 160 164 159 154 153 146 147 147 143 150 167 178 179 147 137 147 216 140 72 128 180 119 88 130 128 120 150 159 155 141 137 133
175 167 155 156 193 208 217 289 85 120 160 196 216 55 33 302 227 216 200 196 169 141 137 135 110 109 114 78 131 134 119 147 148 171 159 148 158 187 173 181 209 208 186 172 166 162 175 186 194 199 185 176 170 166 170 174 170 165 160 155 168 156 160 154 169 181 178 173 139 125 111 217 214 140 122 146 143 137 131 144 175 161 156 155 155
117 150 162 175 195 169 191 254 166 162 184 202 182 156 151 176 198 227 312 351 73 130 131 132 143 150 162 170 183 183 185 171 170 156 156 178 199 181 159 177 191 186 193 197 195 172 172 180 189 189 182 178 181 178 168 155 162 164 174 167 164 174 158 157 154 195 198 116 7 165 172 178 170 152 151 169 75 88 156 189 170 138 148 143 145
65 106 168 162 151 101 360 330 357 344 355 356 6 2 325 252 154 53 337 214 189 164 147 139 145 167 193 192 189 190 198 188 160 162 173 180 178 179 175 170 189 181 185 198 202 193 180 182 186 183 180 179 178 164 167 171 169 172 162 168 171 159 161 163 165 174 180 262 165 83 93 243 144 140 175 118 158 169 213 139 156 139 124 119 131
61 97 119 39 42 37 29 18 8 346 356 21 23 6 337 337 77 113 250 203 210 166 150 158 160 175 193 197 192 228 218 173 165 173 163 164 177 170 164 167 168 207 199 203 202 191 185 185 181 174 176 176 175 183 176 165 158 164 174 171 154 171 171 170 170 172 180 196 178 235 66 112 124 71 142 157 144 159 165 97 121 141 133 126 144
41 43 49 45 47 44 38 26 7 359 357 26 35 12 341 352 40 202 272 263 247 171 147 155 158 171 189 209 208 183 156 144 157 155 160 161 165 164 167 166 169 178 198 207 198 191 187 183 174 172 177 180 183 179 173 166 171 169 168 163 171 175 182 173 166 179 192 190 152 80 102 122 78 67 121 95 136 151 164 175 156 118 124 132 114
50 53 52 54 56 56 48 36 20 7 8 18 32 15 350 352 10 305 300 265 256 225 157 158 163 164 176 197 201 165 133 137 148 157 167 163 171 177 173 172 174 174 180 195 200 196 186 179 177 179 185 180 184 179 168 170 179 179 178 178 171 174 179 172 180 180 191 171 176 146 133 115 78 70 81 108 90 101 163 177 165 150 146 132 120
50 51 52 54 49 45 43 56 32 20 12 15 19 17 358 347 356 15 310 296 274 276 239 166 151 150 145 161 190 154 139 140 144 162 117 129 184 196 186 181 178 183 178 187 195 192 191 185 183 185 182 182 180 173 177 180 183 185 182 175 171 176 180 179 170 167 173 167 171 170 161 167 167 167 178 171 151 147 138 155 150 157 142 146 119
44 46 44 46 43 34 27 28 31 30 33 359 10 11 6 352 342 7 320 292 281 269 308 325 106 114 111 126 136 128 130 139 147 122 130 179 251 257 225 177 186 185 183 183 191 194 190 191 186 180 181 179 184 179 180 183 184 183 176 178 182 182 175 173 167 165 178 179 183 183 178 178 170 165 169 169 166 164 154 159 158 123 114 98 124
37 37 41 39 40 35 30 11 13 25 23 7 12 5 3 360 357 340 312 304 290 230 207 233 142 140 134 140 167 163 160 171 162 156 176 185 196 220 229 215 190 185 193 190 198 192 188 186 183 180 182 184 180 175 186 181 177 179 181 182 179 180 181 177 174 182 177 180 192 194 177 180 189 164 140 146 119 133 139 142 145 137 136 142 137
32 31 32 31 30 32 29 25 25 19 16 15 7 3 347 345 344 339 317 315 309 289 255 233 235 205 164 172 179 180 186 182 180 175 184 190 200 202 203 226 202 202 192 199 192 186 188 187 179 182 182 178 178 181 176 178 171 175 180 182 185 189 178 182 188 183 184 191 171 162 184 183 174 161 147 145 149 141 149 151 145 126 128 136 128
31 33 32 26 22 24 25 24 23 23 21 17 10 3 354 350 340 324 312 294 291 292 287 235 224 217 191 189 196 196 192 194 200 188 187 194 199 207 197 208 213 209 201 197 172 180 182 178 184 184 181 177 170 170 171 176 178 170 178 185 187 177 183 182 186 175 180 181 179 184 177 172 169 163 161 169 163 168 157 157 147 141 129 153 159
24 24 22 21 20 20 22 19 17 19 21 18 15 10 2 350 335 318 305 300 297 312 335 343 355 351 334 302 265 228 206 200 202 194 200 195 198 208 206 198 216 209 201 169 180 173 175 180 184 187 177 172 171 168 168 179 180 173 173 175 183 168 174 181 181 178 184 185 188 172 156 179 169 169 173 166 174 162 158 160 159 158 148 157 154
27 22 20 16 15 18 20 15 11 13 20 17 6 0 358 352 348 340 324 310 314 349 26 317 278 247 224 226 235 229 229 204 200 195 196 194 197 209 206 199 204 201 188 176 173 182 178 178 179 176 175 178 174 168 166 180 178 176 173 174 181 177 173 183 169 178 187 180 174 176 183 163 173 166 158 162 157 155 164 168 169 170 166 143 167
32 26 21 17 17 18 17 15 14 14 13 8 5 356 356 355 350 347 345 333 327 341 121 257 270 262 261 238 238 244 250 255 238 214 208 164 198 221 202 173 199 196 180 183 178 179 179 179 173 172 174 174 179 173 172 174 171 184 175 180 182 170 174 161 175 172 173 172 170 171 161 153 161 169 166 159 162 162 155 169 171 152 170 149 157
20 17 13 9 9 9 10 7 4 9 4 0 356 357 358 1 356 351 344 338 321 290 263 241 235 205 228 261 259 277 289 313 336 359 59 258 222 204 201 205 192 191 186 179 172 178 181 175 171 166 167 176 172 174 171 167 168 168 169 173 167 168 165 172 172 169 168 163 167 173 163 150 161 163 147 150 156 153 149 160 148 143 128 134 144
18 14 13 11 8 8 8 4 3 0 359 355 352 356 1 359 356 352 345 346 343 335 318 308 313 276 247 256 237 233 250 40 24 146 186 211 212 195 192 194 202 195 192 177 173 181 178 166 170 164 166 164 167 168 165 162 161 170 167 168 173 166 166 167 163 165 157 168 165 165 168 157 152 144 148 158 157 153 147 159 155 142 127 133 138
22 21 13 11 9 7 5 2 358 358 2 359 358 359 356 354 354 353 347 344 343 338 338 330 316 283 243 242 204 209 211 188 201 196 214 233 241 212 197 197 183 201 180 178 177 183 179 173 165 169 167 164 165 164 163 158 164 166 175 173 165 170 170 169 155 160 167 166 170 166 165 153 151 151 159 152 154 152 149 150 139 133 135 153 145
22 16 15 10 6 359 360 358 355 2 2 359 360 357 358 357 351 350 345 346 342 338 339 334 331 311 267 242 243 219 216 254 297 254 218 236 245 228 217 189 193 198 178 177 180 183 185 173 170 170 166 164 167 169 163 160 165 166 173 175 168 171 176 168 164 165 168 177 170 165 149 151 164 154 152 157 155 153 158 155 167 158 153 168 178
19 17 13 9 5 359 357 358 358 359 357 357 358 359 355 352 349 351 348 340 340 335 336 336 328 323 291 271 255 235 227 268 279 298 249 231 232 225 211 204 205 192 187 183 177 181 186 179 173 171 168 168 170 168 166 166 171 171 172 176 176 176 175 167 173 174 173 162 165 162 155 150 146 142 160 154 154 162 165 170 176 174 167 175 183
16 15 13 8 3 1 1 2 360 357 358 357 355 355 351 348 344 343 344 341 339 340 337 334 327 321 315 293 245 217 183 123 123 215 225 227 226 222 196 202 205 191 192 190 176 178 182 181 176 174 172 167 162 163 167 176 174 172 171 174 179 184 182 177 178 175 166 167 167 153 161 156 150 147 155 158 163 157 169 176 176 186 173 177 183
15 13 9 7 6 5 359 356 357 355 356 353 354 354 352 344 341 341 335 337 336 331 324 318 314 311 308 303 268 265 155 175 206 218 231 224 221 216 184 151 105 257 228 190 178 175 183 183 180 177 171 166 167 165 170 175 177 177 173 172 178 183 185 184 180 176 172 169 166 165 159 160 159 150 163 161 164 163 157 175 219 181 185 177 163
17 13 10 8 6 0 0 359 358 360 355 352 350 350 347 346 343 342 334 335 338 331 324 311 312 314 306 292 277 267 231 214 214 196 196 216 221 224 219 204 189 198 213 246 191 176 184 187 183 176 172 171 170 170 172 175 174 171 170 171 171 178 184 176 170 158 151 156 152 157 169 169 170 168 174 173 167 169 169 174 192 186 184 167 174
19 14 10 9 8 4 360 359 358 357 354 350 349 347 346 343 342 344 343 340 336 332 327 334 334 334 330 315 287 282 232 232 225 209 218 215 216 219 219 213 197 198 190 208 219 183 191 184 181 173 174 172 171 173 172 173 171 168 170 167 167 168 154 145 139 144 146 140 141 143 158 168 176 186 176 180 173 169 172 185 189 192 183 170 179
26 21 14 10 4 1 1 358 355 351 346 346 347 345 343 343 340 341 344 344 340 338 336 335 336 337 332 332 320 293 248 226 232 234 226 225 205 207 217 218 201 201 194 195 201 190 184 180 173 172 172 168 165 170 178 176 172 170 167 170 161 149 141 135 139 141 145 154 158 161 166 174 180 186 191 185 181 182 180 181 178 173 169 175 179
25 21 12 6 2 352 358 357 351 348 346 344 343 343 344 344 346 346 347 348 340 341 341 342 337 332 326 325 321 312 280 236 220 232 233 223 210 203 207 200 186 175 153 159 149 185 159 149 141 156 158 151 162 173 173 176 171 172 169 167 156 147 142 134 128 137 148 150 163 156 156 170 166 149 143 144 167 184 180 168 176 164 156 158 136
24 18 7 1 353 353 354 349 346 345 344 345 345 346 347 348 350 351 352 346 343 347 345 347 345 335 328 317 318 323 305 258 228 226 232 224 216 208 196 183 183 172 165 187 164 148 183 158 150 134 129 145 159 167 181 178 173 171 173 162 146 150 142 136 134 133 121 103 89 77 105 115 102 100 98 109 116 123 135 158 156 153 142 136 143
19 10 2 356 349 347 344 348 350 348 349 348 347 343 345 351 352 354 354 347 349 344 351 349 348 342 331 331 328 327 322 292 247 231 230 227 222 211 195 188 179 165 157 154 166 153 178 167 157 155 148 145 145 152 158 161 156 159 154 149 149 147 140 137 140 144 144 127 85 67 71 97 97 88 87 90 103 100 96 98 101 112 137 152 150
11 4 355 346 345 345 347 350 349 346 346 351 350 348 352 354 351 355 350 347 358 1 357 358 353 345 342 336 334 329 326 312 265 233 226 226 222 210 199 190 172 153 151 143 167 165 158 152 138 142 147 150 153 135 152 183 155 161 157 142 140 141 142 139 137 134 132 122 114 97 83 79 82 108 103 97 90 92 98 96 92 88 84 70 75
6 358 352 348 349 347 342 348 353 351 349 349 351 353 355 349 351 349 347 356 357 360 358 1 360 356 347 340 333 335 331 325 295 248 224 222 216 209 197 181 176 165 145 151 157 139 142 140 140 143 142 124 140 79 169 179 156 162 146 130 129 132 131 127 127 123 126 127 126 115 98 78 90 104 110 120 117 105 94 93 91 82 68 70 70
4 353 353 346 351 345 346 348 347 345 348 343 355 356 344 346 347 345 358 360 1 4 5 1 1 2 356 347 347 343 337 336 327 286 228 219 211 199 157 142 136 126 132 124 120 116 111 116 112 120 117 86 83 357 118 146 152 145 126 113 114 109 102 101 98 100 107 107 114 126 117 106 93 103 121 116 106 103 102 91 80 75 76 67 66
357 355 350 351 348 347 350 349 351 350 346 349 353 351 341 352 356 1 3 2 3 9 11 5 2 359 359 355 349 349 344 353 352 357 346 29 73 71 78 74 84 89 100 116 129 120 105 96 90 91 93 66 13 22 121 135 142 123 110 106 106 102 99 96 90 87 88 90 85 88 104 107 93 79 47 87 110 109 101 93 85 72 65 56 48
352 349 348 350 350 354 351 342 342 354 354 357 351 341 347 352 3 15 5 2 1 15 14 8 5 1 1 357 352 353 355 5 12 15 28 23 19 30 53 71 83 69 58 58 42 68 84 85 78 78 85 59 31 46 106 130 129 115 105 100 102 102 102 97 88 83 81 81 88 100 103 95 89 72 26 62 86 110 106 102 94 90 84 73 62
357 353 346 349 352 359 355 354 1 6 5 2 350 345 345 359 16 12 10 5 8 14 11 9 7 1 2 359 0 4 6 10 19 28 31 32 27 18 31 42 75 66 62 51 27 40 50 67 68 57 65 62 47 33 80 108 121 115 105 105 100 94 93 91 83 74 78 83 80 84 98 102 87 69 60 87 86 105 100 99 100 94 89 83 73
8 2 4 2 1 0 6 9 7 12 9 358 357 351 356 11 15 11 10 9 16 12 5 8 6 360 0 2 4 9 14 15 26 33 30 37 44 32 25 41 69 75 66 60 59 40 40 47 63 56 41 58 50 30 53 80 90 106 121 120 116 107 100 93 89 72 82 77 75 75 73 82 85 77 83 91 99 103 97 98 100 96 81 70 52
21 17 5 355 352 357 4 9 13 15 1 360 1 1 12 16 15 13 14 16 12 4 2 4 5 4 5 6 6 13 17 19 24 35 43 41 37 47 39 47 63 74 70 67 65 51 40 32 49 60 49 50 50 35 36 56 72 85 107 117 117 113 109 108 108 91 67 78 63 57 60 70 84 77 70 73 85 103 113 124 126 110 101 88 78
20 22 11 357 1 10 16 15 14 11 3 3 1 15 19 17 14 16 22 17 3 355 353 4 10 13 13 12 11 15 18 20 22 29 48 51 44 42 40 66 49 66 74 68 71 67 57 36 37 45 40 35 39 36 26 44 60 66 79 111 122 120 120 120 116 115 107 83 74 69 58 51 65 84 83 74 63 74 97 104 115 112 117 124 162
28 21 13 21 16 20 20 18 12 7 8 5 5 19 22 17 14 20 22 8 357 358 3 8 15 21 20 16 14 15 18 21 19 18 29 62 59 42 20 68 64 57 73 68 71 71 66 50 45 47 45 38 34 36 33 40 46 51 55 80 87 97 110 113 115 104 104 109 101 82 36 65 69 75 82 82 80 72 74 75 70 92 90 133 137
39 34 29 22 22 22 21 18 13 10 11 8 9 23 21 18 17 17 7 1 7 12 12 12 20 24 23 21 18 16 17 21 21 20 28 40 37 63 49 50 66 66 61 55 61 67 66 58 49 46 43 41 36 38 41 39 44 50 49 49 82 84 105 114 96 101 99 92 89 89 80 65 82 85 84 84 84 87 92 93 81 96 104 100 94
25 23 17 24 30 24 24 21 11 12 12 11 14 23 21 18 19 1 355 6 15 20 20 20 23 24 26 23 21 23 23 16 20 24 30 41 41 41 42 53 55 57 68 67 52 57 59 56 54 46 40 40 33 36 37 41 41 49 50 51 54 63 66 82 106 101 89 93 86 92 86 82 88 89 87 88 89 87 78 82 92 89 91 98 101
24 23 10 13 23 19 21 21 19 14 11 13 19 23 21 21 8 345 1 13 18 23 27 30 26 24 22 24 19 22 28 25 19 19 30 38 36 37 44 45 55 61 56 57 54 56 59 52 46 45 33 34 34 38 38 39 43 49 56 58 58 57 61 77 78 79 63 68 67 67 92 95 90 87 82 77 75 77 90 92 91 94 96 95 97
23 12 8 20 20 13 10 13 12 11 8 13 17 22 21 16 353 352 5 13 19 26 32 29 29 27 24 17 27 28 22 28 24 23 28 24 31 31 45 35 47 55 64 65 50 60 64 59 49 42 31 28 26 31 35 28 30 39 46 53 59 59 55 65 74 62 59 58 85 91 86 86 91 91 88 83 74 75 85 91 92 92 90 84 85
22 12 5 11 12 16 15 9 1 1 360 6 14 26 23 354 347 4 3 6 21 32 33 31 30 31 26 21 24 27 27 29 30 29 34 31 30 24 31 29 35 46 51 63 58 54 61 64 66 47 39 28 21 24 28 28 21 22 39 54 68 77 81 80 87 93 95 90 85 86 89 87 81 82 80 77 77 77 75 75 73 73 71 71 71
17 352 1 10 13 11 7 5 4 351 352 352 6 14 15 3 6 359 8 18 29 29 33 33 32 30 32 31 32 26 27 29 29 30 34 33 32 33 31 25 24 29 42 49 47 50 55 56 62 51 48 39 37 30 23 21 18 26 21 32 81 84 91 94 88 80 78 75 74 77 91 93 90 82 81 81 81 77 69 60 53 50 55 57 56
11 10 23 28 22 16 5 6 1 346 347 355 4 6 0 4 2 3 6 25 34 34 31 24 28 33 31 31 35 28 31 39 36 36 33 28 27 30 41 35 21 6 13 48 59 51 44 40 38 30 31 38 32 34 25 4 352 347 8 40 53 60 58 73 86 83 88 93 96 94 82 78 82 76 72 68 60 60 65 63 59 55 56 57 66
18 355 23 38 21 14 2 2 349 340 348 357 1 2 356 0 352 358 17 32 29 28 31 28 23 26 30 29 34 35 35 35 39 44 50 43 31 23 34 47 31 23 29 29 48 59 61 54 56 40 36 25 14 11 356 355 9 28 35 47 56 61 71 74 88 104 102 84 87 79 77 70 70 79 73 71 64 66 58 54 54 51 53 56 52
344 355 26 23 22 17 1 355 342 342 346 355 354 352 340 341 352 359 11 33 23 26 26 22 25 29 15 24 33 33 34 38 38 38 42 51 51 52 46 43 30 25 42 52 66 65 34 4 72 52 33 58 30 342 10 24 38 57 63 69 77 77 79 90 78 68 86 91 76 79 66 78 78 82 81 76 71 71 72 57 49 45 48 53 53
6 28 11 13 5 12 11 1 339 332 333 342 342 340 343 334 345 1 19 23 26 21 18 15 19 24 23 13 30 41 37 46 39 38 39 47 44 40 46 47 47 44 42 38 42 46 49 47 59 91 55 59 78 67 55 48 50 56 65 69 75 84 87 89 87 102 57 72 92 87 81 76 78 79 81 74 65 68 61 66 53 50 47 56 67